QPF
0.00 0.00 0.00 0.00 0.00 0.00 0.00 0.00 0.00 0.00 0.00 0.00 0.00 0.00 0.00 0.01 0.00 0.00 0.00 0.00 0.00 0.00 0.00 0.00 0.00 0.00 0.00 0.00 0.00 0.00 0.00 0.00 0.00 0.00 0.00 0.00 0.00 0.00 0.00 0.00 0.00 0.00 0.00
0.00 0.00 0.00 0.00 0.00 0.00 0.00 0.00 0.00 0.01 0.00 0.00 0.00 0.00 0.00 0.00 0.00 0.00 0.00 0.00 0.00 0.00 0.00 0.00 0.00 0.00 0.00 0.00 0.00 0.00 0.00 0.00 0.00 0.00 0.00 0.00 0.00 0.00 0.00 0.00 0.00 0.00 0.00
0.00 0.00 0.00 0.00 0.00 0.00 0.00 0.00 0.00 0.00 0.00 0.00 0.00 0.00 0.00 0.00 0.00 0.00 0.00 0.00 0.00 0.00 0.00 0.00 0.00 0.00 0.00 0.00 0.00 0.00 0.00 0.00 0.00 0.00 0.00 0.00 0.00 0.00 0.00 0.00 0.00 0.00 0.00
0.00 0.00 0.00 0.00 0.00 0.00 0.00 0.00 0.00 0.00 0.00 0.00 0.00 0.00 0.00 0.00 0.00 0.00 0.00 0.00 0.00 0.00 0.00 0.00 0.00 0.00 0.00 0.00 0.00 0.00 0.00 0.00 0.00 0.00 0.00 0.00 0.00 0.00 0.00 0.00 0.00 0.00 0.00
0.00 0.00 0.00 0.00 0.00 0.00 0.00 0.00 0.00 0.00 0.00 0.00 0.00 0.00 0.00 0.00 0.00 0.00 0.00 0.00 0.00 0.00 0.00 0.00 0.00 0.00 0.00 0.00 0.00 0.00 0.00 0.00 0.00 0.00 0.00 0.00 0.00 0.00 0.00 0.00 0.00 0.00 0.00
0.00 0.00 0.00 0.00 0.00 0.00 0.00 0.00 0.00 0.00 0.00 0.00 0.00 0.00 0.00 0.00 0.00 0.00 0.00 0.00 0.00 0.00 0.00 0.00 0.00 0.00 0.00 0.00 0.00 0.00 0.00 0.00 0.00 0.00 0.00 0.00 0.00 0.00 0.00 0.00 0.00 0.00 0.00
0.00 0.00 0.00 0.00 0.00 0.00 0.00 0.00 0.00 0.00 0.00 0.00 0.00 0.00 0.00 0.00 0.00 0.00 0.00 0.00 0.00 0.00 0.00 0.00 0.00 0.00 0.00 0.00 0.00 0.00 0.00 0.00 0.00 0.00 0.00 0.00 0.00 0.00 0.00 0.00 0.00 0.01 0.01
0.00 0.00 0.00 0.00 0.00 0.00 0.00 0.00 0.00 0.00 0.00 0.00 0.00 0.00 0.00 0.00 0.00 0.00 0.00 0.00 0.00 0.00 0.00 0.00 0.00 0.00 0.00 0.00 0.00 0.00 0.00 0.00 0.00 0.00 0.00 0.00 0.00 0.00 0.00 0.01 0.00 0.01 0.04
0.01 0.00 0.00 0.00 0.00 0.00 0.00 0.00 0.00 0.00 0.00 0.00 0.00 0.00 0.00 0.00 0.00 0.00 0.00 0.00 0.00 0.00 0.00 0.00 0.00 0.00 0.00 0.00 0.00 0.00 0.00 0.00 0.00 0.00 0.00 0.00 0.00 0.00 0.03 0.00 0.00 0.04 0.09
0.13 0.18 0.15 0.04 0.00 0.00 0.00 0.00 0.00 0.00 0.00 0.00 0.00 0.00 0.00 0.00 0.00 0.00 0.00 0.00 0.00 0.00 0.00 0.00 0.00 0.00 0.00 0.00 0.00 0.00 0.00 0.00 0.00 0.00 0.00 0.00 0.00 0.04 0.07 0.04 0.06 0.06 0.15
0.07 0.10 0.16 0.11 0.05 0.02 0.00 0.00 0.00 0.00 0.00 0.00 0.00 0.00 0.00 0.00 0.01 0.02 0.02 0.00 0.00 0.00 0.00 0.00 0.00 0.00 0.00 0.00 0.00 0.00 0.00 0.00 0.00 0.00 0.00 0.00 0.00 0.01 0.02 0.12 0.28 0.09 0.13
0.04 0.03 0.05 0.08 0.08 0.07 0.05 0.05 0.03 0.02 0.00 0.00 0.00 0.00 0.00 0.00 0.00 0.06 0.05 0.03 0.03 0.00 0.00 0.00 0.00 0.00 0.00 0.00 0.00 0.00 0.00 0.00 0.00 0.00 0.01 0.04 0.06 0.03 0.06 0.13 0.19 0.14 0.14
0.02 0.01 0.01 0.01 0.02 0.02 0.02 0.01 0.01 0.02 0.01 0.03 0.01 0.00 0.00 0.00 0.00 0.02 0.07 0.05 0.08 0.07 0.00 0.00 0.01 0.04 0.01 0.00 0.00 0.01 0.03 0.03 0.01 0.02 0.09 0.18 0.11 0.01 0.04 0.16 0.13 0.12 0.12
0.01 0.01 0.00 0.00 0.00 0.00 0.00 0.00 0.00 0.00 0.00 0.01 0.01 0.01 0.00 0.00 0.00 0.01 0.01 0.01 0.03 0.01 0.02 0.03 0.01 0.00 0.00 0.00 0.01 0.02 0.04 0.04 0.02 0.02 0.04 0.03 0.01 0.00 0.00 0.03 0.04 0.08 0.12
0.00 0.00 0.00 0.00 0.00 0.00 0.00 0.00 0.00 0.00 0.00 0.00 0.00 0.00 0.00 0.00 0.00 0.00 0.01 0.01 0.04 0.05 0.04 0.02 0.01 0.02 0.01 0.03 0.03 0.04 0.04 0.02 0.00 0.01 0.02 0.04 0.01 0.00 0.01 0.03 0.06 0.10 0.10
0.00 0.00 0.00 0.00 0.00 0.00 0.00 0.00 0.00 0.00 0.00 0.00 0.00 0.00 0.00 0.00 0.01 0.00 0.00 0.02 0.09 0.24 0.16 0.05 0.02 0.02 0.02 0.03 0.09 0.10 0.08 0.01 0.01 0.07 0.07 0.06 0.01 0.00 0.01 0.04 0.07 0.07 0.06
0.00 0.00 0.00 0.00 0.00 0.00 0.00 0.00 0.00 0.00 0.00 0.00 0.00 0.00 0.00 0.00 0.00 0.00 0.00 0.00 0.01 0.07 0.21 0.29 0.15 0.07 0.04 0.12 0.16 0.17 0.15 0.16 0.13 0.06 0.04 0.02 0.00 0.00 0.01 0.02 0.03 0.02 0.01
0.00 0.00 0.00 0.00 0.00 0.00 0.00 0.00 0.00 0.00 0.00 0.00 0.00 0.00 0.00 0.00 0.00 0.00 0.00 0.00 0.00 0.00 0.00 0.02 0.04 0.02 0.01 0.03 0.06 0.07 0.07 0.10 0.09 0.05 0.01 0.00 0.00 0.00 0.01 0.01 0.00 0.00 0.00
0.00 0.00 0.00 0.00 0.00 0.00 0.00 0.00 0.00 0.00 0.00 0.00 0.00 0.00 0.00 0.00 0.00 0.00 0.00 0.00 0.00 0.00 0.00 0.00 0.00 0.00 0.01 0.02 0.05 0.03 0.06 0.11 0.10 0.03 0.01 0.00 0.00 0.02 0.02 0.00 0.00 0.00 0.01
0.00 0.00 0.00 0.00 0.00 0.00 0.00 0.00 0.00 0.00 0.00 0.00 0.00 0.00 0.00 0.00 0.00 0.00 0.00 0.00 0.00 0.00 0.00 0.00 0.00 0.00 0.01 0.00 0.00 0.03 0.11 0.15 0.10 0.03 0.00 0.00 0.01 0.00 0.00 0.00 0.00 0.00 0.00
0.00 0.00 0.00 0.00 0.00 0.00 0.00 0.00 0.00 0.00 0.00 0.00 0.00 0.00 0.00 0.00 0.00 0.00 0.00 0.00 0.00 0.00 0.00 0.00 0.00 0.00 0.00 0.00 0.01 0.01 0.02 0.03 0.01 0.01 0.00 0.00 0.01 0.00 0.00 0.00 0.00 0.00 0.00
0.00 0.00 0.00 0.00 0.00 0.00 0.00 0.00 0.00 0.00 0.00 0.00 0.00 0.00 0.00 0.00 0.00 0.00 0.00 0.00 0.00 0.00 0.00 0.00 0.00 0.00 0.00 0.00 0.00 0.00 0.00 0.00 0.00 0.00 0.01 0.01 0.01 0.00 0.00 0.00 0.00 0.00 0.00
0.00 0.00 0.00 0.00 0.00 0.00 0.00 0.00 0.00 0.00 0.00 0.00 0.00 0.00 0.00 0.00 0.00 0.00 0.00 0.00 0.00 0.00 0.00 0.00 0.00 0.00 0.00 0.00 0.00 0.00 0.00 0.00 0.00 0.00 0.01 0.01 0.01 0.00 0.00 0.00 0.00 0.00 0.00
0.00 0.00 0.00 0.00 0.00 0.00 0.00 0.00 0.00 0.00 0.00 0.00 0.00 0.00 0.00 0.00 0.00 0.00 0.00 0.00 0.00 0.00 0.00 0.00 0.00 0.00 0.00 0.00 0.00 0.01 0.01 0.01 0.01 0.01 0.01 0.01 0.01 0.01 0.00 0.00 0.00 0.00 0.00
0.00 0.00 0.00 0.00 0.00 0.00 0.00 0.00 0.00 0.00 0.00 0.00 0.00 0.00 0.00 0.00 0.00 0.00 0.00 0.00 0.00 0.00 0.00 0.00 0.00 0.00 0.00 0.00 0.00 0.01 0.02 0.02 0.01 0.01 0.01 0.01 0.01 0.01 0.01 0.00 0.00 0.00 0.00
0.00 0.00 0.00 0.00 0.00 0.00 0.00 0.00 0.00 0.00 0.00 0.00 0.00 0.00 0.00 0.00 0.00 0.00 0.00 0.00 0.00 0.00 0.00 0.00 0.00 0.00 0.00 0.00 0.00 0.00 0.00 0.00 0.00 0.00 0.00 0.01 0.01 0.02 0.02 0.01 0.00 0.00 0.00
MSLP
1012.97 1013.77 1014.35 1014.91 1015.51 1015.99 1016.12 1016.47 1016.85 1017.03 1017.28 1017.49 1017.73 1017.84 1017.97 1018.17 1018.31 1018.61 1018.67 1018.57 1018.90 1018.94 1019.05 1019.06 1019.04 1018.98 1018.65 1018.21 1018.31 1018.34 1017.94 1017.65 1017.11 1016.25 1016.03 1015.71 1015.74 1015.70 1015.50 1015.23 1014.97 1014.55 1013.95
1012.17 1013.07 1013.84 1014.39 1014.85 1015.15 1015.53 1015.78 1016.24 1016.61 1016.90 1017.04 1017.34 1017.59 1017.72 1017.82 1017.88 1018.04 1018.13 1017.94 1018.23 1018.32 1018.36 1018.47 1018.47 1018.31 1018.51 1018.40 1018.14 1017.95 1017.53 1017.44 1017.10 1016.23 1015.94 1015.64 1015.16 1014.99 1015.21 1015.14 1014.52 1014.00 1013.71
1011.70 1012.29 1012.93 1013.55 1014.04 1014.38 1014.69 1015.20 1015.65 1015.97 1016.27 1016.48 1016.89 1017.10 1017.29 1017.43 1017.53 1017.65 1017.69 1017.67 1017.69 1017.71 1017.71 1017.77 1017.82 1017.85 1017.83 1017.63 1017.59 1017.29 1016.87 1016.57 1016.23 1015.73 1015.00 1014.75 1014.59 1014.41 1014.27 1014.20 1013.76 1013.23 1012.75
1010.95 1011.69 1012.14 1012.58 1013.10 1013.63 1014.05 1014.52 1015.13 1015.35 1015.65 1015.85 1016.13 1016.49 1016.76 1016.91 1016.93 1017.06 1017.14 1017.18 1017.22 1017.12 1017.15 1017.16 1017.20 1017.25 1017.25 1017.25 1017.13 1016.92 1016.68 1016.48 1016.00 1015.59 1014.69 1013.95 1013.90 1013.56 1013.19 1012.89 1012.18 1011.65 1011.42
1010.70 1011.15 1011.62 1012.06 1012.46 1013.04 1013.37 1013.82 1014.45 1014.77 1014.98 1015.09 1015.40 1015.61 1015.93 1016.19 1016.22 1016.32 1016.47 1016.47 1016.48 1016.48 1016.45 1016.46 1016.43 1016.46 1016.59 1016.70 1016.45 1015.99 1015.94 1015.83 1015.24 1014.65 1014.01 1013.47 1012.81 1012.27 1012.15 1012.12 1011.75 1011.20 1010.99
1010.51 1010.99 1011.38 1011.67 1012.02 1012.40 1012.82 1013.15 1013.54 1014.05 1014.47 1014.67 1014.74 1014.77 1014.92 1015.04 1015.17 1015.63 1015.99 1015.81 1015.59 1015.53 1015.58 1015.62 1015.63 1015.72 1015.86 1016.05 1016.15 1016.26 1016.40 1016.12 1015.34 1014.84 1013.89 1013.17 1012.70 1012.63 1012.06 1011.94 1011.61 1011.39 1011.44
1010.47 1010.97 1011.33 1011.60 1011.79 1012.06 1012.31 1012.38 1012.53 1013.01 1013.52 1013.71 1013.99 1014.09 1014.12 1014.31 1014.60 1014.95 1015.26 1015.43 1015.23 1014.86 1014.77 1014.73 1014.63 1014.37 1014.50 1014.56 1014.53 1014.85 1014.88 1014.89 1014.91 1014.87 1014.24 1013.37 1012.75 1012.55 1012.49 1012.28 1012.05 1011.90 1011.91
1010.11 1010.33 1010.96 1011.57 1012.09 1012.00 1012.05 1012.09 1012.50 1012.67 1012.75 1013.02 1013.11 1013.31 1013.46 1013.49 1013.84 1014.25 1014.48 1014.67 1014.47 1014.22 1014.09 1013.94 1013.89 1013.83 1013.91 1013.96 1013.91 1013.81 1013.43 1013.15 1013.12 1013.43 1013.34 1012.83 1012.76 1012.74 1012.52 1012.29 1012.17 1012.22 1012.48
1010.59 1010.74 1010.81 1011.19 1011.45 1011.85 1012.10 1012.23 1012.48 1012.53 1012.48 1012.71 1012.71 1012.61 1012.64 1012.72 1013.06 1013.41 1013.87 1013.99 1013.58 1013.29 1013.14 1013.09 1013.08 1013.03 1013.06 1013.25 1013.54 1013.27 1012.95 1012.44 1011.76 1011.97 1011.85 1011.64 1011.80 1012.05 1012.41 1012.61 1012.15 1011.99 1011.88
1011.75 1011.01 1010.56 1012.00 1011.56 1011.94 1012.01 1011.90 1012.24 1012.06 1011.81 1012.03 1011.94 1012.06 1012.19 1012.28 1012.41 1012.81 1013.20 1013.25 1012.52 1012.07 1011.96 1011.89 1012.03 1012.30 1012.49 1012.85 1013.07 1012.81 1012.33 1011.74 1011.31 1011.07 1011.11 1011.54 1011.38 1010.97 1011.66 1011.81 1011.37 1011.20 1011.38
1012.28 1012.08 1011.39 1012.01 1011.69 1012.27 1011.79 1011.99 1011.93 1011.59 1011.53 1011.31 1011.12 1011.07 1011.35 1011.45 1011.60 1012.00 1012.28 1012.53 1011.77 1011.14 1010.72 1010.42 1010.44 1010.72 1011.23 1011.77 1012.08 1012.24 1011.81 1011.53 1011.23 1010.92 1010.64 1010.51 1010.25 1010.13 1010.24 1010.66 1010.95 1010.96 1010.97
1012.85 1012.91 1012.79 1012.91 1011.05 1011.41 1011.82 1011.51 1011.71 1011.55 1011.50 1011.11 1010.75 1010.61 1010.21 1010.58 1010.80 1011.08 1011.44 1011.69 1011.48 1011.14 1010.27 1009.77 1009.80 1010.45 1010.69 1010.83 1011.24 1011.33 1011.36 1011.47 1011.07 1010.28 1009.98 1009.83 1009.72 1009.77 1009.51 1009.72 1009.82 1010.27 1010.69
1012.41 1012.66 1012.62 1012.34 1012.19 1012.60 1011.89 1011.81 1011.63 1011.49 1011.54 1011.04 1011.05 1010.51 1010.53 1010.47 1010.29 1010.33 1010.56 1010.93 1011.01 1011.47 1010.51 1010.15 1010.26 1010.12 1010.43 1010.70 1010.47 1010.30 1010.42 1010.56 1010.00 1009.44 1009.31 1009.50 1009.71 1009.60 1009.51 1009.76 1010.21 1010.81 1011.45
1012.26 1012.31 1012.35 1012.45 1012.29 1011.95 1011.45 1011.55 1011.33 1012.11 1012.24 1012.33 1012.00 1011.59 1010.98 1010.85 1010.80 1011.52 1011.43 1010.72 1010.51 1010.69 1010.63 1010.19 1009.83 1009.71 1009.65 1009.71 1009.60 1009.17 1009.36 1009.16 1008.54 1008.34 1008.41 1008.94 1009.15 1009.46 1009.28 1009.89 1010.54 1011.20 1011.85
1012.13 1012.20 1012.36 1011.69 1011.47 1012.05 1011.92 1011.74 1011.49 1012.88 1012.95 1012.82 1013.03 1012.69 1012.39 1011.95 1011.94 1012.72 1012.54 1011.63 1011.03 1010.77 1010.43 1009.55 1008.92 1008.73 1008.91 1008.63 1007.99 1007.64 1007.60 1007.82 1008.09 1008.18 1008.25 1008.48 1008.67 1008.96 1009.34 1009.84 1010.33 1010.91 1011.38
1012.61 1012.21 1012.14 1011.57 1011.29 1011.78 1011.88 1011.96 1012.57 1012.78 1013.41 1013.47 1013.61 1013.62 1013.07 1012.85 1012.68 1012.49 1012.03 1011.98 1011.52 1010.75 1010.21 1009.39 1008.69 1008.35 1008.15 1007.97 1007.71 1007.46 1007.23 1007.36 1007.35 1007.37 1007.51 1007.83 1007.58 1008.03 1008.81 1009.50 1010.00 1010.37 1010.77
1013.59 1013.13 1011.81 1012.35 1012.19 1012.31 1012.46 1012.25 1012.05 1012.22 1012.68 1012.95 1012.97 1013.23 1013.40 1013.35 1013.05 1012.62 1011.86 1011.27 1010.59 1010.27 1010.00 1009.10 1008.60 1008.10 1007.69 1007.52 1007.51 1007.39 1006.91 1006.61 1006.40 1006.43 1006.72 1006.83 1006.89 1007.90 1008.57 1009.02 1009.47 1010.00 1010.44
1014.10 1013.56 1012.71 1012.89 1012.60 1012.87 1012.88 1012.82 1012.24 1012.17 1012.41 1012.21 1012.78 1012.85 1013.09 1013.00 1012.88 1012.47 1011.42 1010.30 1010.11 1010.39 1009.97 1009.37 1008.99 1008.68 1008.39 1008.21 1007.99 1007.60 1006.89 1006.36 1006.15 1006.05 1005.85 1005.97 1006.76 1007.76 1008.17 1008.53 1009.12 1009.49 1009.91
1013.92 1013.41 1013.16 1013.00 1013.43 1013.27 1013.16 1013.15 1012.52 1012.40 1012.16 1012.39 1011.89 1012.17 1012.63 1012.66 1012.13 1012.12 1011.83 1011.77 1011.60 1011.49 1011.09 1010.74 1010.29 1009.70 1009.52 1009.12 1008.55 1007.91 1007.36 1006.94 1006.59 1005.93 1005.54 1005.50 1005.85 1007.18 1007.72 1008.06 1008.55 1009.09 1009.45
1013.04 1013.69 1013.70 1013.09 1012.97 1012.99 1013.24 1012.71 1012.92 1012.07 1012.33 1012.19 1012.06 1012.46 1012.16 1012.11 1012.09 1011.95 1012.03 1012.01 1012.03 1011.88 1011.74 1011.66 1011.31 1010.91 1010.56 1010.28 1009.76 1009.03 1008.25 1007.48 1006.82 1006.23 1005.90 1006.05 1005.82 1006.24 1006.98 1007.44 1007.97 1008.46 1008.99
1012.83 1013.03 1013.71 1013.59 1013.09 1013.02 1013.05 1012.51 1012.01 1011.95 1012.24 1012.49 1012.07 1012.38 1013.37 1012.75 1012.33 1012.28 1012.19 1012.14 1012.28 1012.33 1012.40 1012.36 1012.13 1011.64 1011.15 1010.87 1010.60 1010.04 1008.96 1008.12 1007.18 1006.65 1006.26 1006.01 1005.80 1006.05 1006.49 1006.83 1007.23 1007.86 1008.27
1012.69 1012.62 1012.61 1012.67 1012.70 1012.73 1012.52 1012.62 1012.52 1012.08 1012.04 1011.89 1011.82 1011.91 1012.53 1012.14 1011.51 1011.57 1011.97 1012.03 1012.05 1012.25 1012.59 1012.59 1012.17 1012.11 1011.78 1011.23 1011.01 1010.49 1009.84 1009.22 1008.58 1007.90 1006.89 1006.34 1006.13 1006.32 1006.49 1006.64 1006.99 1007.48 1007.69
1012.48 1012.39 1012.27 1012.10 1012.14 1012.53 1012.66 1012.11 1012.02 1012.07 1011.90 1011.67 1011.55 1011.63 1011.52 1011.34 1011.04 1010.79 1010.99 1011.14 1011.43 1011.58 1012.01 1012.26 1012.16 1012.14 1012.19 1012.07 1011.19 1010.96 1010.56 1010.09 1009.69 1009.05 1008.06 1006.86 1006.55 1006.66 1006.53 1006.61 1006.87 1007.01 1007.36
1012.25 1012.09 1011.89 1011.65 1011.66 1011.78 1011.99 1011.81 1011.91 1011.82 1012.00 1011.55 1011.19 1011.02 1010.87 1010.82 1010.54 1010.41 1010.64 1010.71 1010.89 1010.87 1011.37 1011.37 1011.70 1012.01 1012.06 1012.11 1011.75 1011.23 1010.76 1010.83 1010.33 1009.35 1008.64 1007.47 1006.70 1006.90 1006.66 1006.59 1006.77 1006.91 1007.19
1012.34 1011.89 1011.83 1011.66 1011.68 1011.63 1011.56 1011.61 1011.61 1011.31 1011.20 1011.02 1010.79 1010.64 1010.51 1010.53 1010.50 1010.20 1010.21 1010.39 1010.61 1010.82 1010.77 1010.65 1010.65 1010.95 1011.13 1011.35 1011.66 1011.43 1011.01 1010.62 1010.40 1009.93 1008.85 1008.05 1007.03 1006.30 1006.06 1006.21 1006.43 1006.84 1007.31
1012.89 1012.21 1012.06 1011.77 1011.64 1011.62 1011.57 1011.49 1011.39 1011.37 1011.21 1010.94 1010.53 1010.34 1010.11 1010.03 1009.91 1009.99 1010.10 1010.24 1010.44 1010.24 1010.40 1010.11 1010.37 1010.85 1010.87 1010.56 1010.86 1011.38 1011.21 1010.53 1010.01 1009.69 1009.26 1008.29 1007.66 1007.08 1006.87 1006.60 1006.66 1006.78 1007.07
Thickness
5811 5808 5806 5803 5801 5798 5799 5798 5797 5798 5798 5799 5798 5798 5798 5797 5798 5798 5799 5802 5800 5801 5801 5800 5800 5802 5803 5807 5805 5803 5802 5802 5795 5807 5810 5811 5806 5802 5799 5796 5794 5793 5793
5813 5809 5805 5804 5803 5801 5800 5801 5800 5797 5797 5798 5798 5798 5798 5799 5800 5799 5799 5802 5800 5799 5800 5800 5800 5804 5799 5800 5801 5800 5801 5801 5797 5797 5803 5804 5806 5807 5800 5795 5795 5793 5790
5811 5809 5807 5805 5804 5803 5803 5802 5801 5800 5799 5798 5798 5797 5796 5797 5797 5798 5799 5800 5800 5801 5801 5800 5800 5801 5799 5801 5801 5800 5802 5804 5803 5802 5804 5809 5808 5807 5804 5800 5798 5796 5795
5814 5810 5808 5808 5806 5804 5804 5802 5800 5801 5799 5800 5799 5797 5796 5797 5800 5800 5800 5800 5800 5801 5802 5802 5801 5801 5800 5799 5799 5799 5800 5797 5799 5798 5803 5808 5806 5808 5807 5800 5802 5805 5799
5812 5809 5808 5807 5808 5806 5806 5805 5801 5801 5802 5802 5801 5801 5800 5800 5802 5802 5802 5802 5801 5801 5803 5804 5805 5805 5803 5802 5802 5803 5800 5798 5801 5800 5801 5804 5806 5807 5801 5802 5798 5800 5798
5809 5806 5807 5807 5805 5805 5803 5803 5802 5801 5799 5799 5800 5802 5803 5806 5807 5802 5800 5802 5804 5804 5802 5805 5806 5806 5805 5801 5799 5795 5792 5790 5796 5793 5798 5798 5801 5799 5802 5798 5794 5787 5776
5804 5802 5802 5802 5801 5801 5801 5802 5803 5801 5799 5799 5799 5801 5804 5807 5805 5801 5799 5799 5799 5803 5804 5805 5807 5811 5810 5810 5808 5799 5797 5793 5790 5789 5788 5794 5794 5795 5793 5788 5786 5780 5774
5803 5803 5801 5796 5791 5796 5799 5799 5798 5799 5799 5797 5798 5801 5802 5806 5803 5800 5798 5797 5799 5803 5805 5807 5806 5808 5808 5806 5804 5800 5804 5805 5804 5797 5795 5798 5794 5791 5788 5786 5782 5775 5769
5788 5791 5793 5790 5789 5788 5788 5789 5789 5790 5790 5793 5794 5797 5801 5803 5801 5797 5792 5793 5797 5801 5805 5806 5806 5806 5807 5802 5795 5793 5796 5801 5805 5803 5803 5801 5797 5791 5784 5779 5773 5767 5762
5768 5773 5767 5754 5777 5776 5779 5782 5782 5787 5788 5793 5794 5797 5798 5800 5799 5794 5790 5792 5797 5802 5805 5807 5805 5804 5802 5794 5790 5790 5791 5797 5800 5803 5803 5799 5796 5793 5785 5778 5776 5765 5756
5755 5758 5760 5759 5760 5764 5772 5774 5777 5782 5784 5789 5794 5798 5797 5799 5800 5794 5790 5792 5798 5802 5805 5809 5812 5806 5801 5796 5790 5792 5793 5794 5795 5796 5798 5798 5797 5796 5792 5784 5775 5764 5753
5740 5744 5746 5746 5746 5748 5760 5764 5768 5771 5777 5784 5789 5791 5799 5798 5798 5796 5791 5788 5794 5796 5801 5808 5808 5799 5797 5795 5791 5792 5789 5786 5791 5793 5793 5793 5792 5789 5791 5785 5775 5763 5750
5737 5736 5740 5744 5747 5742 5751 5755 5760 5766 5767 5775 5776 5782 5783 5790 5796 5794 5791 5788 5786 5785 5797 5798 5794 5794 5792 5791 5790 5792 5787 5789 5789 5791 5790 5788 5787 5787 5784 5776 5765 5750 5735
5726 5728 5731 5733 5734 5740 5749 5749 5756 5754 5755 5757 5762 5765 5774 5778 5781 5777 5779 5786 5783 5783 5786 5790 5793 5789 5789 5791 5792 5797 5794 5795 5797 5796 5794 5789 5786 5779 5778 5767 5753 5739 5725
5716 5718 5719 5729 5731 5728 5735 5739 5745 5737 5740 5745 5743 5749 5753 5760 5765 5755 5759 5769 5774 5776 5779 5788 5792 5790 5787 5791 5798 5802 5802 5798 5793 5791 5787 5784 5782 5775 5768 5760 5749 5738 5725
5699 5705 5708 5718 5723 5722 5725 5726 5723 5724 5721 5725 5726 5729 5739 5742 5744 5746 5751 5752 5754 5762 5773 5778 5783 5785 5786 5787 5790 5793 5796 5792 5790 5788 5786 5781 5783 5776 5766 5755 5746 5737 5727
5677 5685 5700 5698 5702 5701 5703 5708 5712 5717 5714 5714 5719 5719 5720 5723 5727 5732 5741 5746 5752 5757 5763 5770 5775 5778 5781 5784 5784 5785 5787 5789 5791 5789 5787 5784 5783 5771 5759 5751 5743 5734 5725
5655 5661 5675 5676 5681 5682 5683 5688 5699 5700 5701 5711 5706 5711 5711 5714 5716 5722 5734 5745 5754 5747 5754 5759 5761 5765 5768 5769 5770 5773 5779 5783 5781 5782 5784 5784 5775 5762 5755 5748 5739 5733 5725
5644 5651 5654 5657 5654 5657 5662 5666 5676 5683 5688 5689 5698 5700 5701 5703 5710 5713 5717 5719 5722 5723 5728 5733 5737 5744 5746 5749 5754 5760 5765 5766 5768 5773 5777 5776 5771 5757 5750 5746 5738 5728 5723
5635 5631 5633 5644 5644 5644 5646 5652 5651 5663 5667 5672 5678 5679 5686 5691 5694 5699 5702 5703 5703 5705 5707 5709 5714 5719 5723 5726 5730 5737 5744 5750 5753 5759 5761 5759 5760 5756 5748 5743 5735 5728 5720
5619 5622 5615 5621 5627 5628 5627 5634 5643 5646 5647 5649 5657 5659 5652 5668 5670 5675 5679 5683 5685 5686 5686 5688 5690 5697 5703 5706 5708 5713 5724 5733 5739 5743 5746 5748 5749 5745 5742 5739 5733 5725 5719
5601 5606 5610 5610 5613 5613 5618 5620 5622 5629 5632 5636 5640 5645 5642 5651 5660 5662 5661 5666 5668 5669 5668 5670 5674 5676 5680 5688 5689 5694 5700 5707 5713 5720 5729 5732 5733 5731 5729 5727 5723 5717 5715
5586 5589 5592 5596 5599 5597 5599 5608 5612 5615 5618 5622 5626 5628 5632 5637 5645 5651 5652 5655 5654 5656 5656 5656 5658 5658 5660 5662 5672 5675 5680 5685 5689 5695 5705 5716 5718 5716 5717 5715 5712 5711 5707
5573 5576 5579 5584 5587 5588 5588 5592 5594 5595 5600 5608 5613 5617 5620 5623 5628 5633 5635 5638 5640 5644 5641 5644 5644 5643 5644 5646 5652 5658 5662 5664 5670 5678 5684 5696 5702 5700 5702 5704 5702 5702 5699
5553 5560 5562 5566 5568 5571 5573 5575 5576 5583 5586 5591 5596 5601 5604 5607 5608 5614 5618 5620 5622 5623 5626 5629 5632 5632 5633 5634 5634 5639 5647 5654 5654 5658 5667 5675 5685 5692 5694 5695 5695 5691 5686
5527 5535 5539 5545 5549 5551 5554 5557 5559 5562 5566 5570 5577 5582 5587 5591 5595 5596 5598 5601 5602 5606 5607 5612 5613 5612 5614 5620 5621 5621 5626 5636 5641 5646 5649 5657 5664 5670 5673 5676 5678 5679 5677